Location: Kelowna
(49.8880°N, 119.4960°W)
Time: 05:42:29
(UTC-07:00)

AO-27 - Visible Passes

Search period start: 13 April 2024 00:00
Search period end: 23 April 2024 00:00
Orbit: 785 x 795 km, 98.8° (Epoch: 13 April)

Date Brightness Start Highest point End Pass type
(mag) Time Alt. Az. Time Alt. Az. Time Alt. Az.
13 Apr 8.4 21:38:22 10° S 21:43:27 53° W 21:48:35 10° NNW visible
14 Apr 7.7 21:08:40 10° SSE 21:13:54 90° W 21:19:11 10° NNW visible
14 Apr 10.2 22:51:15 10° WSW 22:54:06 15° W 22:56:59 10° NW visible
15 Apr 7.9 20:39:24 10° SE 20:44:29 54° ENE 20:49:35 10° N visible
15 Apr 9.5 22:19:58 10° SSW 22:24:14 25° W 22:28:34 10° NW visible
16 Apr 8.7 21:49:34 10° S 21:54:32 43° W 21:59:32 10° NNW visible
17 Apr 7.8 21:19:42 10° S 21:24:56 75° WSW 21:30:12 10° NNW visible
17 Apr 10.3 23:03:27 10° WSW 23:05:18 12° W 23:07:09 10° WNW visible
18 Apr 7.7 20:50:17 10° SSE 20:55:27 65° ENE 21:00:40 10° N visible
18 Apr 9.8 22:31:30 10° SW 22:35:22 21° W 22:39:18 10° NW visible
19 Apr 9.0 22:00:50 10° SSW 22:05:36 35° W 22:10:25 10° NNW visible
20 Apr 8.1 21:30:48 10° S 21:35:58 61° WSW 21:41:11 10° NNW visible
21 Apr 7.7 21:01:13 10° SSE 21:06:27 79° ENE 21:11:42 10° NNW visible
21 Apr 10.1 22:43:09 10° SW 22:46:32 17° W 22:49:56 10° NW visible
22 Apr 8.1 20:32:04 10° SE 20:37:03 47° ENE 20:42:04 10° N visible
22 Apr 9.3 22:12:10 10° SSW 22:16:42 29° W 22:21:16 10° NW visible
